Showing default

YUNYAO-1 48, 63349

Orbit data source: Space-Track

YUNYAO-1 48, 63349 is a payload satellite owned by Yunyao yuhang (CN) in SSO that was launched on Fri, 21 Mar 2025 UTC via a GUSHENXING 1 launch vehicle from the Jiuquan Satellite Launch Center, China (JSC). Payload-class satellites include a variety of spacecraft equipped with specific instruments for various scientific and technological missions. These include communications satellites like Starlink; space stations such as the ISS; scientific satellites like the Hubble; Earth observation satellites from companies like Planet Labs, Umbra, and HawkEye 360; GPS; miniature CubeSats for education and research; and military/defense satellites.

Loading next visibility...
Identifier
63349, 2025-059F
Orbit
SSO
Last TLE update
6 hours ago
Origin
Manufacturer
Changguang WJ
Mission
Operational spacecraft
Bus & Motor
YY-1, Unknown motor
Mass
~50 kg wet, ~50 kg dry
Launch date (UTC)
2025-03-21 (4 months ago)
Launch vehicle
GUSHENXING 1
Launch site
Jiuquan Satellite Launch Center, China (JSC)
Object type
Payload
Rocket body
Debris
Shape & HBR
Unknown
Radar Cross Section
Medium (>0.1 m² and <1 m²)

Expand to show TLE details & history

TLE from 6 hours ago
0 YUNYAO-1 48
1 63349U 25059F   25191.74624728  .00001364  00000-0  92284-4 0  9997
2 63349  97.5999  10.9227 0014922 246.9838 112.9816 15.08127197 16785
Epoch: 2025-07-10T17:54Z
TLE epoch observation values (Epoch: 2025-07-10T17:54:35.764Z)
Latitude
-0.00012°
Longitude
173.36559°
Altitude
549.037 km
Speed
7.585 km/s
True Right ascension
00h 43m 41s
True Declination
0° 00' 00"
Sunlit
Object was in daylight at epoch
Visualization orbit readout
Latitude
12.13059°
Longitude
171.99586°
Altitude
550.317 km
Speed
7.584 km/s
Apparent Right ascension
00h 37m 22s
Apparent Declination
-12° 40' 02"
Sunlit
Object is in daylight
Visualization observer readout
Local Sidereal Time
12:36:12
Azimuth
359.383° N
Elevation
-62.75°
Doppler factor
1
Orbital elements
Apogee altitude
549.235 km
Perigee altitude
528.591 km
Semi-major axis
6,917.05 km
Eccentricity
0.00149
Inclination
97.5999°
RAAN
10.9227°
Arg. of periapsis
246.9838°
True anomaly
Unknown
Mean anomaly
112.9816°
Eccentric anomaly
Unknown
Mean motion
3.77278 °/min
Orbital period
95.42 mins
BSTAR
0.000092284
Loading maneuver chart data...
Loading SW <> Apogee altitude chart data...
Loading historical data...
Loading historical data...
Loading historical data...
Loading historical data...
Loading historical data...
Loading historical data...
Loading historical data...
Other satellites on launch #59 in the year 2025 (2025-03-21 UTC)

YUNYAO-1 48 Visibility forecast

Observer location: undefined°, undefined°

Span
Click to sort rows by Start time (UTC) header in descending order
Start Az.
Max El. time (UTC)
Max El. Az.
Max El.
End time (UTC)
End Az.
7 mins2025-07-11 00:49:59.987Z12.211° NNE2025-07-11 00:53:59.987Z187.153° SSW44.871°2025-07-11 00:56:59.987Z192.992° SSW
6 mins2025-07-11 11:33:59.987Z136.39° SSE2025-07-11 11:36:59.987Z56.27° ENE32.754°2025-07-11 11:39:59.987Z4.202° NNE
|